Temp
10 10 10 9 9 9 9 9 9 8 8 8 8 7 7 7 7 7 7 6 6 6 6 6 7 7 7 7 7 7 7 7 7 7 7 7 7 7 7 7 7 7 7 7 7 7 7 7 7 7 7 7 7 7 7 7 8 7 7 7 7 7 7 7 7 8 8 8 8
9 9 9 9 9 9 9 8 8 8 8 7 7 7 7 7 7 7 6 6 6 6 6 6 7 7 7 7 7 7 7 7 7 7 7 7 7 6 6 6 6 6 7 7 7 7 7 7 7 7 7 7 7 7 7 7 7 7 7 7 7 7 7 7 7 7 7 7 7
9 9 9 9 9 8 8 8 8 7 7 7 7 7 7 7 7 7 6 6 7 7 6 6 6 6 7 7 7 7 7 7 7 6 6 6 6 6 6 6 6 6 6 6 6 6 6 6 6 6 6 6 6 6 7 7 7 7 7 7 7 7 7 7 7 7 7 7 7
9 9 9 9 8 8 8 8 8 7 7 7 7 7 7 7 7 7 7 7 7 6 6 6 6 6 6 6 6 6 6 6 6 6 6 6 6 6 6 6 6 6 6 6 6 6 6 6 6 6 6 6 6 6 6 6 6 6 6 6 6 6 7 7 7 7 7 7 7
9 9 9 8 8 8 8 8 8 8 7 8 8 7 7 7 7 7 7 6 6 6 6 6 6 6 6 6 6 6 6 6 6 6 5 5 5 5 5 5 5 5 5 5 5 5 6 6 5 5 6 6 6 6 6 6 6 6 6 6 6 6 6 6 6 6 6 6 6
9 9 8 8 8 8 8 8 8 8 8 8 8 7 7 7 7 6 6 6 6 6 6 6 5 6 6 6 6 5 5 5 5 5 5 5 5 5 5 5 5 5 5 5 5 5 5 5 5 5 5 5 5 5 5 6 6 6 6 6 6 6 6 6 6 6 6 6 6
9 9 8 8 8 8 8 8 8 8 8 8 8 7 7 7 6 6 6 6 6 6 5 5 5 5 5 5 5 5 5 5 5 5 5 5 5 5 5 5 5 5 5 5 5 5 5 5 5 5 5 5 5 5 5 5 5 5 5 5 5 5 5 5 5 6 6 6 6
9 8 8 8 8 8 8 8 8 8 8 7 7 7 6 6 6 6 6 6 5 5 5 5 5 5 5 5 5 5 5 5 4 4 4 4 4 4 4 4 4 4 4 4 4 4 4 4 4 4 4 4 4 5 5 5 5 5 5 5 5 5 5 5 5 5 5 6 6
8 8 8 8 8 8 8 7 7 7 7 7 7 6 6 6 6 6 5 5 5 5 5 5 5 5 5 5 4 4 4 4 4 4 4 4 4 4 4 4 4 4 4 4 4 4 4 4 4 4 4 4 4 4 4 4 4 4 4 4 4 5 5 5 5 5 5 5 5
8 8 8 8 8 7 7 7 7 7 7 7 6 6 6 6 6 5 5 5 5 5 5 5 5 5 5 4 4 4 4 4 4 4 4 4 4 4 4 4 4 4 4 4 4 4 4 4 4 4 4 4 4 4 4 4 4 4 4 4 4 4 4 5 5 5 5 5 5
7 7 7 7 7 7 7 7 7 7 7 7 6 6 6 6 6 5 5 5 5 5 5 5 5 4 4 4 4 4 4 4 4 4 3 3 3 3 3 3 3 3 3 3 3 3 3 3 3 3 3 3 3 4 4 4 4 4 4 4 4 4 4 4 5 5 5 5 5
7 7 7 7 7 7 7 7 7 6 6 6 6 6 6 6 6 5 5 5 5 5 5 4 4 4 4 4 4 4 4 4 3 3 3 3 3 3 3 3 3 3 3 3 3 3 3 3 3 3 3 3 3 3 3 3 3 3 4 4 4 4 4 4 4 4 4 5 5
7 7 7 7 7 7 7 7 6 6 6 6 6 6 6 6 6 5 5 5 5 4 4 4 4 4 4 4 4 4 3 3 3 3 3 3 3 3 3 3 3 3 3 3 3 3 3 3 3 3 3 3 3 3 3 3 3 3 3 4 4 4 4 4 4 4 4 4 4
7 7 7 7 7 7 7 6 6 6 6 6 6 6 6 5 5 5 5 4 4 4 4 4 4 4 4 4 3 3 3 3 3 3 3 3 3 3 3 3 3 3 3 3 3 3 3 3 3 3 3 3 3 3 3 3 3 3 3 3 4 4 4 4 4 4 4 4 4
6 6 6 7 7 7 6 6 6 6 6 6 6 5 5 5 5 5 4 4 4 4 4 4 4 4 4 4 3 3 3 3 3 3 3 3 3 3 3 3 3 3 3 3 3 3 3 2 2 2 2 2 2 3 3 3 3 3 3 3 3 3 3 4 4 4 4 4 4
6 6 6 6 6 6 6 6 6 5 5 5 5 5 5 4 4 4 4 4 4 4 4 4 4 4 4 4 4 3 3 3 3 3 3 3 3 3 3 2 2 2 2 2 2 2 2 2 2 2 2 2 2 2 3 3 3 3 3 3 3 3 3 3 3 3 3 4 4
6 6 6 6 6 6 6 5 5 5 5 5 4 4 4 4 4 4 4 4 4 4 4 4 4 4 3 3 3 3 3 3 3 3 3 2 2 2 2 2 2 2 2 2 2 2 2 2 2 2 2 2 2 2 2 3 3 3 3 3 3 3 3 3 3 3 3 3 3
6 6 6 6 6 6 5 5 5 4 4 4 4 4 4 4 4 4 4 4 3 3 3 3 3 3 3 3 3 3 3 3 2 2 2 2 2 2 2 2 2 2 2 2 2 2 2 2 2 2 2 2 2 2 2 3 3 3 3 3 3 3 3 3 3 3 3 3 3
6 6 6 6 5 5 5 4 4 4 4 4 4 4 4 4 4 4 4 3 3 3 3 3 3 3 3 3 3 3 3 2 2 2 2 2 2 2 2 2 2 2 2 2 2 2 2 2 2 2 2 2 2 2 2 2 2 2 2 2 2 2 2 2 2 3 3 3 3
5 5 5 5 5 5 4 4 4 4 4 4 4 4 4 4 3 3 3 3 3 3 3 3 3 3 3 3 3 3 2 2 2 2 2 2 2 2 2 2 2 2 2 2 2 2 2 2 2 2 2 2 2 2 2 2 2 2 2 2 2 2 2 2 2 2 2 2 3
5 5 5 4 4 4 4 3 3 3 3 3 4 4 3 3 3 3 3 3 3 3 3 3 3 3 3 3 2 2 2 2 2 2 2 2 2 2 2 2 2 2 2 2 2 2 2 2 2 2 2 2 2 2 2 2 2 2 2 2 2 2 2 2 2 2 2 2 2
4 4 4 4 4 3 3 3 3 3 3 3 3 3 3 3 3 3 3 3 3 3 3 3 2 2 2 2 2 2 2 2 2 2 2 2 2 2 2 2 2 1 1 1 1 1 1 1 1 2 2 2 2 2 2 2 2 2 2 2 2 2 2 2 2 2 2 2 2
4 4 4 3 3 3 3 3 3 3 3 3 3 3 3 3 3 3 3 3 3 3 3 2 2 2 2 2 2 2 2 2 2 2 2 2 2 2 2 2 1 1 1 1 1 1 1 1 1 2 2 2 2 2 2 2 2 2 1 1 1 1 1 1 2 2 2 2 2
4 3 3 3 3 3 3 3 3 3 3 3 3 3 3 3 3 3 3 3 3 3 3 2 2 2 2 2 2 2 2 2 2 2 2 2 2 2 2 1 1 1 1 1 1 1 1 1 1 2 2 2 2 2 2 2 1 1 1 1 1 1 1 1 1 1 1 1 1
3 3 3 3 3 3 3 3 3 3 3 3 3 3 3 3 3 3 3 3 3 3 3 2 2 2 2 2 2 2 2 2 2 2 2 2 2 2 1 1 1 1 1 1 1 1 1 1 1 2 2 2 2 2 1 1 1 1 1 1 1 1 1 1 1 1 1 1 1
3 3 3 3 2 3 3 3 3 3 3 3 3 3 3 3 3 3 3 3 3 3 2 2 2 2 2 1 2 2 2 2 1 1 1 1 1 1 1 1 1 1 0 0 0 1 1 1 1 2 2 2 1 1 1 1 1 1 1 1 1 1 1 1 1 1 1 1 1
3 3 3 2 2 2 2 2 2 3 3 3 3 3 3 3 3 3 3 3 2 2 2 2 2 1 1 1 1 1 1 1 1 1 1 1 1 1 1 0 0 0 0 0 0 0 1 1 1 1 2 1 1 1 1 1 1 1 1 1 1 1 1 1 1 1 1 1 1
3 2 2 2 2 2 2 2 2 3 3 3 3 3 3 3 3 2 2 2 2 2 2 1 1 1 1 1 1 1 1 1 1 1 1 1 1 0 0 0 -0 -0 -0 -0 -0 0 1 1 1 1 1 1 1 1 1 1 1 1 1 1 1 1 1 1 1 1 1 1 1
2 2 2 2 2 2 2 2 2 2 2 2 2 2 2 2 2 2 2 2 2 1 1 1 1 1 1 1 1 1 1 1 1 1 1 0 0 0 -0 -0 -0 -0 -0 -0 -0 0 0 1 1 1 1 1 1 1 1 1 1 1 1 1 1 1 1 1 1 1 1 1 1
2 2 2 2 2 2 2 2 2 2 2 2 2 2 2 2 2 2 1 1 1 1 1 1 1 1 1 1 1 1 1 1 1 1 0 -0 -0 -0 -0 -0 -1 -1 -1 -1 -0 -0 0 0 1 1 1 1 1 1 1 1 1 0 0 0 0 0 0 0 0 0 0 0 0
1 1 1 2 2 2 2 1 2 2 2 2 2 2 2 1 1 1 1 1 1 1 1 1 1 1 1 1 1 1 0 0 0 0 -0 -1 -1 -1 -1 -1 -1 -1 -1 -1 -1 -0 0 0 0 1 1 1 1 1 1 1 0 0 0 0 0 0 0 0 0 0 0 0 0
1 1 1 1 1 1 1 1 1 1 2 2 1 1 1 1 1 1 1 1 0 1 1 1 0 0 0 1 0 0 0 -0 -0 -0 -1 -1 -1 -1 -1 -1 -1 -1 -1 -1 -1 -0 -0 0 0 0 0 0 1 1 0 0 0 0 0 0 0 0 0 0 0 0 0 0 0
1 1 1 1 1 1 1 1 1 1 1 1 1 1 1 1 1 1 1 1 0 0 0 0 -0 -0 -0 -0 -0 -0 -0 -1 -1 -1 -1 -1 -1 -1 -1 -1 -1 -1 -1 -1 -1 -1 -0 -0 -0 0 0 0 0 0 0 0 0 0 0 0 0 0 0 0 0 0 0 0 0
1 0 0 1 1 1 1 1 1 1 1 1 1 1 1 0 0 1 0 0 0 -0 -0 -0 -0 -0 -1 -1 -1 -1 -1 -1 -1 -1 -1 -1 -1 -1 -2 -2 -2 -2 -1 -1 -1 -1 -1 -0 -0 -0 0 0 0 0 0 0 -0 -0 -0 -0 0 0 0 0 0 0 0 0 0
0 0 0 0 0 0 1 1 1 1 1 1 1 1 1 0 0 0 0 0 -0 -0 -0 -0 -0 -0 -0 -1 -1 -1 -1 -1 -1 -1 -1 -2 -2 -2 -2 -2 -2 -2 -2 -2 -1 -1 -1 -1 -1 -0 -0 -0 0 -0 -0 -0 -0 -0 -0 -0 0 0 0 0 0 0 -0 -0 -0
-0 -0 -0 0 0 0 0 0 1 1 1 0 0 0 0 0 0 -0 -0 -0 -0 -1 -1 -0 -0 -1 -1 -1 -1 -1 -2 -2 -2 -2 -2 -2 -2 -2 -2 -2 -2 -2 -2 -2 -2 -1 -1 -1 -1 -0 -0 -0 -0 -0 -0 -0 -0 -0 -0 -0 -0 -0 0 -0 -0 -0 -0 -0 -0
-0 -0 -0 -0 0 0 0 0 0 0 0 -0 -0 -0 -0 -0 -0 -0 -0 -1 -1 -1 -1 -1 -1 -1 -1 -1 -2 -2 -2 -2 -2 -2 -2 -2 -2 -2 -2 -2 -2 -2 -2 -2 -2 -2 -1 -1 -1 -1 -0 -0 -0 -0 -0 -0 -0 -0 -0 -0 -0 -0 -0 -0 -0 -0 -0 -0 -0
-0 -0 -0 -0 -0 -0 -0 -0 -0 -0 -0 -0 -0 -0 -0 -1 -1 -1 -1 -1 -1 -2 -2 -2 -2 -2 -2 -2 -2 -2 -2 -2 -2 -2 -2 -2 -2 -2 -2 -2 -2 -2 -2 -2 -2 -2 -2 -1 -1 -1 -0 -0 -0 -0 -0 -0 -0 -0 -0 -0 -0 -0 -0 -0 -0 -0 -0 -0 0
-0 -0 -0 -0 -0 -0 -0 -0 -0 -1 -1 -1 -1 -1 -1 -1 -1 -1 -1 -1 -2 -2 -2 -2 -2 -2 -2 -2 -2 -2 -2 -2 -2 -2 -2 -2 -2 -2 -2 -3 -2 -2 -2 -2 -2 -2 -2 -1 -1 -1 -0 -0 -0 -0 -0 -0 -0 -0 -0 -0 -0 -0 -0 -0 -0 -0 -0 0 -0
-0 -0 -0 -0 -0 -1 -1 -1 -1 -1 -1 -1 -1 -1 -1 -1 -1 -1 -1 -2 -2 -2 -2 -2 -2 -2 -2 -2 -2 -2 -2 -2 -2 -2 -2 -2 -2 -3 -3 -3 -3 -3 -2 -2 -2 -2 -2 -1 -1 -1 -0 -0 -0 -0 -0 -0 -0 -0 -0 -0 -0 -0 -0 -0 -0 -0 -0 -0 -0
-0 -0 -0 -0 -1 -1 -1 -1 -1 -1 -1 -1 -1 -1 -1 -1 -2 -2 -2 -2 -2 -2 -2 -3 -2 -2 -2 -3 -3 -3 -3 -2 -2 -2 -2 -2 -3 -3 -3 -3 -3 -3 -3 -2 -2 -2 -2 -1 -1 -1 -0 -0 -0 -0 -0 -0 -0 -0 -0 -0 -0 -0 -0 -0 -0 -0 -1 -1 -1
Height
782 782 782 781 781 781 781 781 780 780 780 779 779 778 777 776 776 775 775 774 773 772 771 771 770 769 768 767 766 765 763 762 761 760 759 758 757 756 755 753 752 751 750 748 747 745 744 743 742 740 739 738 737 735 735 733 732 730 730 729 727 725 724 723 721 720 719 717 716
782 782 782 782 781 781 781 781 780 780 780 779 779 778 777 777 776 775 775 774 774 773 772 771 770 769 768 767 765 765 763 762 761 760 759 758 757 755 754 753 752 751 750 748 747 745 744 743 741 740 739 737 736 735 734 733 732 730 729 728 726 725 723 722 720 719 718 716 715
783 782 782 782 781 781 781 780 780 780 780 779 779 778 777 776 776 775 775 775 774 773 772 771 770 769 768 766 765 765 763 762 761 760 759 758 756 755 754 753 751 750 749 748 747 745 744 743 741 740 739 737 736 735 734 732 731 730 729 727 726 725 723 722 720 719 717 715 714
783 782 782 782 781 781 781 781 780 780 779 779 778 778 777 777 776 775 775 774 773 772 771 771 770 769 767 766 765 764 763 762 761 760 759 757 756 755 754 753 751 750 749 748 746 745 744 742 741 740 738 737 736 735 734 732 731 730 728 727 725 724 723 721 720 718 716 715 713
783 782 782 782 781 781 781 781 780 780 779 779 778 777 777 776 776 775 775 774 773 772 771 770 770 768 767 766 765 764 763 762 760 759 758 757 756 755 753 752 751 750 749 747 746 745 743 742 740 739 738 737 735 735 733 732 730 729 728 726 725 724 722 721 719 717 716 714 712
783 782 782 782 782 781 781 780 780 780 779 779 778 777 777 776 775 775 774 774 773 772 771 770 769 768 766 765 764 763 762 761 760 759 758 756 755 754 753 752 750 749 748 747 745 744 743 741 740 739 738 736 735 734 733 731 730 728 727 725 724 723 722 720 719 717 715 713 711
783 783 782 782 781 781 781 780 780 780 779 778 778 777 776 776 775 775 774 774 773 771 770 770 769 767 766 765 764 762 761 760 759 758 757 756 755 753 752 751 750 749 747 746 745 743 742 741 740 738 737 735 734 733 731 730 729 727 726 725 723 722 721 719 717 716 714 712 710
783 783 782 782 781 781 780 780 780 779 778 778 777 777 776 775 775 774 773 773 772 771 770 769 768 767 765 765 763 762 761 760 758 757 756 755 754 753 751 750 749 748 747 745 744 743 741 740 739 738 736 735 734 732 731 730 728 727 725 724 722 721 720 719 717 715 713 711 709
783 783 782 782 781 781 780 780 779 779 778 777 777 776 776 775 775 774 773 772 771 770 770 768 767 766 765 764 763 762 760 759 758 757 756 755 753 752 751 750 748 747 746 745 744 742 741 740 738 737 736 735 733 732 730 729 728 726 725 723 721 720 719 718 716 714 712 710 709
783 783 783 782 782 781 781 780 779 778 777 777 776 776 775 775 774 773 772 772 771 770 769 768 767 765 765 763 762 761 760 759 757 756 755 754 753 752 750 749 748 746 745 744 743 741 740 739 738 736 735 734 733 731 730 729 727 725 724 723 721 719 718 716 715 714 711 710 708
783 783 783 782 782 781 781 780 779 778 777 776 775 775 774 774 773 773 772 771 770 769 768 767 766 765 764 763 762 760 760 759 757 756 755 754 753 751 750 749 748 746 745 744 742 741 740 738 737 735 734 733 732 730 729 727 726 725 723 722 720 719 717 715 714 713 711 709 707
784 783 783 782 782 782 781 780 779 778 777 775 775 774 774 773 773 772 771 770 769 769 768 767 765 765 763 762 761 760 759 758 757 755 754 753 752 751 750 749 747 746 745 743 742 740 739 738 736 735 733 732 731 730 728 726 725 724 722 721 720 718 716 715 713 711 710 708 706
783 783 782 782 782 781 781 780 779 778 776 775 774 774 773 773 772 771 770 770 769 768 767 766 765 764 763 762 761 760 758 757 756 755 754 753 751 750 749 748 747 745 744 743 741 740 739 737 736 734 732 731 730 729 727 726 725 723 721 720 718 717 715 714 712 710 709 707 705
783 783 782 782 781 781 780 780 779 778 777 775 774 773 773 772 772 771 770 769 768 767 766 765 765 764 763 761 760 759 758 757 755 755 753 752 751 750 748 747 746 745 743 742 741 740 738 736 735 734 732 730 729 727 726 725 724 722 721 719 718 716 715 713 711 710 708 705 704
783 782 782 781 780 780 780 780 779 778 777 775 774 773 773 772 771 770 770 769 768 767 766 765 764 763 762 761 760 759 757 756 755 754 752 751 750 749 748 746 745 744 742 741 740 739 737 736 735 733 731 730 728 726 725 724 723 721 720 719 717 715 714 712 710 709 707 705 703
782 782 781 780 780 780 780 780 779 778 777 776 774 773 772 771 771 770 769 768 767 766 766 765 764 762 761 760 759 758 757 755 755 753 752 750 749 748 747 746 745 743 741 740 739 737 736 735 734 732 730 729 727 725 724 723 721 720 719 718 716 715 713 711 710 708 706 704 702
782 781 780 780 780 780 780 780 779 778 777 776 774 773 772 771 770 770 769 768 767 766 765 764 763 762 761 760 759 758 756 755 754 753 751 750 749 747 746 745 744 742 741 739 738 736 735 734 732 731 730 728 726 725 723 722 720 719 718 716 715 714 712 710 709 707 705 703 701
782 781 780 780 779 780 780 780 779 778 777 775 774 773 772 771 770 769 769 768 767 766 765 763 763 762 760 759 758 757 756 755 753 752 751 750 748 747 746 744 743 742 740 739 737 735 734 732 731 730 728 726 725 724 722 721 719 718 716 715 714 712 711 710 708 706 705 703 701
782 781 780 780 780 780 780 779 779 778 776 775 774 773 772 771 770 769 768 767 766 765 764 763 762 761 760 759 758 756 755 754 753 752 750 750 748 746 745 743 742 740 739 738 736 735 733 731 730 728 726 725 724 722 721 720 718 717 715 714 712 711 710 708 707 705 704 702 700
782 781 780 780 780 780 780 779 778 777 776 775 773 772 771 770 769 769 768 767 766 765 764 763 761 760 759 758 757 756 755 754 752 751 750 749 747 746 744 742 741 740 738 737 735 733 732 730 729 727 725 724 722 721 720 718 717 715 714 712 711 710 708 707 705 704 702 701 699
782 781 781 780 780 780 779 779 778 776 775 774 773 772 771 770 769 768 767 766 765 764 763 762 761 760 758 757 756 755 754 753 752 750 749 747 746 745 743 742 740 738 737 735 734 732 731 729 728 726 725 723 721 720 719 717 715 714 712 711 710 708 707 705 704 702 701 699 698
782 781 781 780 780 780 779 778 777 776 775 774 772 771 770 770 769 768 767 766 765 764 762 761 760 759 758 757 756 755 753 752 751 750 748 747 745 744 743 741 739 737 736 734 733 731 730 728 727 726 724 723 720 719 717 716 714 712 710 709 708 706 705 703 702 701 699 698 696
782 781 781 780 780 779 778 777 776 775 774 773 772 771 770 769 768 767 766 765 764 763 762 761 760 759 757 756 755 754 752 751 749 748 747 746 744 742 741 740 738 737 735 734 732 731 729 727 726 725 723 722 720 718 716 715 713 711 709 707 706 704 703 702 700 699 697 696 694
782 781 781 780 779 778 777 776 775 774 773 772 771 770 769 768 767 766 765 764 763 762 761 760 759 758 757 756 755 753 752 750 748 746 745 744 743 741 740 739 737 736 735 733 732 731 730 728 726 724 722 721 719 717 715 714 712 710 708 706 704 703 701 700 698 697 695 694 692
781 781 780 780 779 778 777 775 775 774 773 772 771 770 769 768 766 765 764 763 762 761 760 759 758 757 756 755 754 752 751 750 748 746 744 743 741 740 739 738 736 735 734 732 731 730 730 728 727 725 722 720 718 716 714 713 711 709 707 705 703 701 699 697 696 695 693 692 690
781 780 780 779 778 777 776 775 774 773 772 771 770 769 768 767 766 765 764 763 761 760 760 758 757 756 755 754 752 751 750 748 747 745 744 742 740 739 738 737 736 734 733 731 730 730 729 727 726 724 722 720 718 715 713 711 709 708 706 704 702 700 698 696 694 692 691 690 688
780 780 779 778 778 777 776 775 774 773 772 770 770 769 767 766 765 764 763 762 761 760 759 757 756 755 754 753 751 750 749 747 746 745 743 742 740 739 737 736 735 734 732 731 730 729 727 726 725 723 721 719 717 715 712 710 708 706 705 703 701 699 697 695 693 691 689 687 686
780 779 779 778 777 776 775 774 773 772 771 770 769 768 767 766 765 764 762 761 760 759 758 756 755 754 753 752 750 749 748 747 745 744 742 741 740 738 737 735 734 733 731 730 729 727 726 725 723 721 720 718 716 713 711 709 707 705 703 701 700 698 696 694 692 690 687 685 684
780 779 778 777 776 776 775 774 773 772 770 770 768 767 766 765 764 763 762 760 759 758 757 755 755 753 752 751 750 748 747 746 745 743 742 740 739 737 736 735 733 731 730 729 728 726 725 723 722 720 718 717 715 712 710 708 706 704 702 700 698 696 694 692 690 688 686 684 682
779 779 778 777 776 775 774 773 772 771 770 769 768 767 765 765 764 762 761 760 759 758 757 755 754 753 752 750 749 748 746 745 744 742 741 739 738 736 735 734 732 730 729 728 727 725 724 722 720 719 717 715 713 711 709 707 705 703 701 699 696 695 693 690 688 686 684 682 680
779 778 778 776 776 775 774 773 771 770 769 768 767 766 765 764 763 762 761 760 759 757 756 755 754 752 751 750 749 747 746 744 743 741 740 739 737 735 734 733 731 729 728 727 725 724 722 720 719 717 715 713 712 710 707 705 703 701 699 697 695 693 691 689 687 685 683 681 679
779 778 777 776 775 774 773 772 771 770 769 768 767 766 765 764 763 762 760 759 758 756 755 754 753 751 750 749 747 746 745 744 742 741 739 738 736 735 733 731 730 728 727 726 724 723 721 719 717 715 714 712 710 708 706 704 702 700 697 695 693 691 689 687 685 683 681 680 678
779 778 777 775 775 773 772 771 770 769 768 767 766 765 764 763 762 761 760 759 757 756 755 753 752 750 749 748 746 745 744 743 742 740 739 737 735 734 732 730 729 727 726 724 723 721 720 718 716 714 712 710 708 706 704 702 700 698 695 693 691 690 688 686 684 682 680 678 676
778 777 776 775 774 773 771 770 769 768 767 766 765 765 764 762 761 760 759 757 756 755 754 753 752 750 749 748 747 745 743 742 740 739 738 736 734 732 731 729 728 726 725 723 722 720 718 716 714 712 710 708 706 704 702 700 698 696 694 691 690 688 686 684 682 680 679 677 675
778 776 775 774 773 772 770 770 769 768 767 765 765 764 763 762 761 760 758 757 755 754 753 752 751 750 748 747 746 745 743 741 739 738 736 735 733 731 730 728 726 725 723 722 720 719 717 715 713 711 709 707 705 702 700 698 696 694 692 690 688 686 684 682 680 679 677 675 674
777 776 775 773 772 771 770 769 768 767 766 765 764 763 762 761 760 759 758 756 755 753 752 751 750 748 747 745 744 743 742 740 738 736 735 734 732 730 728 726 725 723 722 721 719 717 715 713 711 710 707 705 703 701 699 696 694 692 690 688 686 684 682 680 679 677 675 674 672
777 775 774 773 772 771 770 769 768 767 766 765 764 763 761 760 759 758 757 755 754 752 751 750 749 748 746 745 743 742 740 739 737 735 734 732 731 730 727 725 723 722 720 719 718 716 714 712 710 708 706 704 701 699 697 695 693 690 688 686 684 682 680 679 677 675 673 672 670
776 775 774 773 771 770 770 769 768 766 765 764 763 762 761 760 758 757 756 755 754 752 750 749 748 747 745 744 742 740 739 738 736 735 733 731 730 729 727 724 722 720 719 718 716 715 713 710 709 707 705 703 700 698 695 693 691 689 687 685 682 680 679 677 675 673 671 670 668
775 775 774 772 771 770 769 768 767 766 765 764 762 761 760 759 758 756 755 755 754 752 750 749 747 746 745 743 741 739 737 736 735 734 732 730 728 727 726 724 721 719 718 716 715 713 711 709 707 705 704 701 699 697 695 692 690 688 685 683 681 679 677 675 673 671 669 667 666
775 774 773 772 771 770 769 768 767 766 765 763 762 760 759 758 757 756 755 754 753 751 750 748 746 745 744 742 740 738 736 734 733 732 730 729 727 726 725 723 720 718 716 715 713 711 710 708 706 704 702 700 698 696 694 691 689 686 684 682 680 677 675 673 671 669 667 665 664
774 773 773 772 771 770 768 767 766 765 764 763 761 760 759 758 756 755 754 753 751 750 749 747 745 744 742 741 739 737 735 732 731 730 728 727 725 724 723 721 719 717 715 713 712 710 708 707 705 703 701 699 697 695 693 690 688 685 683 681 679 676 674 671 669 667 665 664 662
Wind_Speed
19 19 18 18 18 18 18 18 17 16 16 17 18 18 18 19 19 19 18 19 19 19 19 19 19 20 21 22 23 24 24 25 25 25 24 24 24 24 25 25 25 25 26 26 27 27 28 28 28 28 26 25 25 25 25 25 25 25 26 26 26 26 25 25 25 25 26 26 25
18 18 17 17 17 17 17 17 17 16 16 17 17 18 18 19 19 19 19 18 18 18 18 18 19 20 21 22 22 23 24 25 25 24 24 24 24 24 25 25 25 25 26 26 27 28 28 29 29 27 26 25 25 25 25 24 25 26 26 26 26 26 26 26 26 26 26 26 27
17 17 17 17 17 17 17 17 17 17 17 17 17 18 18 19 19 19 18 18 17 18 18 19 19 20 21 22 22 23 24 24 24 24 24 24 24 24 25 25 25 25 26 26 27 27 28 29 28 26 25 25 25 25 25 24 25 25 26 26 26 26 26 25 25 26 27 26 27
16 16 16 16 16 17 17 17 16 17 17 17 17 18 18 19 19 18 18 18 18 18 18 19 19 20 21 22 22 23 23 23 24 24 24 24 24 25 25 25 25 26 26 26 27 27 28 28 27 26 25 25 24 24 24 24 25 25 25 25 26 26 25 25 25 26 27 27 27
16 16 15 15 15 15 15 15 16 16 16 16 17 18 18 18 18 18 18 19 18 18 18 18 19 20 21 21 22 23 23 23 23 24 24 24 24 25 25 25 25 26 26 26 26 27 28 28 26 25 24 24 23 22 23 24 25 26 25 25 25 25 24 24 25 26 27 28 28
15 14 14 14 14 13 14 14 15 15 15 16 17 18 18 18 18 18 19 18 18 18 18 19 19 20 21 22 22 23 24 24 24 24 24 24 24 25 25 25 25 26 26 26 27 27 27 27 26 24 24 24 23 23 23 24 25 26 26 25 25 24 24 26 26 27 27 28 29
13 13 13 13 12 13 13 13 13 14 14 15 17 18 18 18 18 18 18 18 18 18 19 19 20 21 21 22 23 23 24 24 24 24 24 24 25 25 25 26 26 26 26 27 27 27 27 27 25 24 24 24 23 23 24 25 26 26 26 26 25 25 25 26 26 27 27 29 30
12 12 12 12 12 12 12 13 13 14 15 15 16 17 17 17 18 18 18 18 18 19 19 20 20 21 21 22 23 23 24 24 24 24 24 25 25 26 26 26 26 26 26 27 27 27 27 26 25 24 24 24 24 24 25 26 26 27 27 26 26 25 25 26 27 28 28 29 30
12 12 12 12 12 12 12 12 13 14 15 16 16 16 17 17 18 18 18 19 18 18 19 20 20 21 21 22 23 23 24 24 24 24 25 25 25 26 26 26 26 26 26 27 27 27 27 26 25 24 25 25 25 25 25 26 27 27 27 26 26 27 27 27 28 29 29 29 29
12 12 12 12 12 12 12 12 13 14 15 16 16 16 17 17 18 18 18 18 18 19 20 20 21 21 22 22 23 23 24 24 24 24 25 25 25 26 26 26 26 26 27 27 27 27 27 26 25 26 26 25 25 26 26 26 27 27 27 26 26 27 28 28 28 29 29 28 28
13 13 13 13 13 13 13 13 14 14 15 16 16 17 17 18 18 18 18 18 19 20 20 21 21 21 22 23 23 24 24 23 24 24 25 25 25 25 25 25 25 26 26 27 27 27 26 26 26 27 27 26 26 26 26 26 27 27 27 26 27 27 28 28 28 28 28 28 29
13 13 13 13 13 13 14 14 15 15 16 16 17 17 18 18 18 18 18 19 20 20 21 21 21 22 22 23 23 24 24 24 24 24 24 25 25 25 25 25 25 26 26 26 27 27 26 26 27 27 28 27 25 25 25 26 26 26 26 26 27 27 27 28 28 28 28 28 28
13 13 14 14 14 14 15 15 16 16 16 17 17 17 18 18 18 18 19 20 20 21 21 21 21 22 22 23 24 24 24 24 24 24 25 25 25 25 25 25 26 26 26 26 26 27 26 27 27 27 27 27 26 25 25 25 25 25 25 26 27 27 27 28 28 28 28 28 28
13 14 14 14 15 15 16 16 16 16 16 17 17 17 17 18 18 18 19 20 20 21 21 22 22 22 22 23 24 24 24 24 25 25 25 25 26 26 26 26 26 26 27 27 27 27 27 27 27 27 27 27 27 26 26 25 25 24 25 26 26 27 27 28 28 28 28 28 28
13 14 14 15 15 16 16 16 16 16 16 16 16 17 17 18 18 19 19 20 20 21 22 22 23 23 23 23 24 25 25 25 25 26 26 27 27 27 27 27 27 27 28 28 28 27 27 27 27 27 27 27 27 27 26 25 25 24 25 25 26 27 27 28 28 28 27 27 27
14 14 14 15 16 16 16 16 16 16 16 16 16 17 17 18 18 19 19 20 20 21 22 23 23 23 24 24 25 26 26 25 26 26 27 27 28 28 28 28 28 28 28 29 29 28 28 28 27 27 27 27 27 27 26 26 25 25 25 25 26 26 27 27 27 27 27 27 27
14 15 15 15 16 16 15 15 15 15 15 16 16 17 18 18 18 19 19 20 21 21 22 23 23 24 24 25 25 26 26 26 26 26 27 28 28 28 28 28 28 28 29 29 29 29 29 29 29 28 27 27 27 26 26 26 25 25 26 26 26 26 27 26 26 26 27 27 26
15 15 15 16 16 15 15 14 14 14 15 16 16 17 17 18 18 19 19 19 20 21 22 23 23 24 24 25 26 26 26 26 27 27 27 27 28 28 28 29 29 29 29 29 29 29 29 30 30 29 29 28 27 26 26 27 26 26 27 27 27 27 27 27 26 26 27 27 26
15 15 15 15 15 14 14 13 14 14 15 16 17 17 18 18 18 19 19 20 20 21 22 23 23 24 24 25 26 26 26 26 27 27 27 27 28 28 29 29 29 29 29 29 29 30 30 30 30 30 30 29 28 28 27 27 28 28 28 27 27 27 27 27 27 27 27 26 26
15 15 15 15 14 13 13 13 14 15 15 16 17 17 18 18 18 19 19 20 20 21 21 22 23 24 25 25 26 27 27 26 27 28 28 28 28 28 29 30 30 29 29 29 30 31 31 31 31 30 30 29 29 29 28 28 28 29 28 28 27 27 28 28 28 27 27 27 27
15 15 14 13 13 13 13 13 14 15 16 17 17 18 18 18 19 19 19 20 20 21 22 22 23 24 25 25 26 27 27 27 28 28 29 29 28 28 29 29 30 30 30 30 31 31 32 31 31 30 29 29 29 29 29 29 29 29 29 28 28 28 28 28 28 28 27 27 27
15 14 13 13 12 13 13 14 15 15 16 17 18 18 18 19 19 19 19 20 20 21 22 23 23 24 25 25 26 27 28 28 29 29 29 29 29 29 29 29 30 30 30 30 31 31 31 30 30 29 29 29 30 30 30 29 29 29 29 29 29 29 29 29 28 28 27 27 28
14 13 13 13 13 13 14 15 16 16 17 18 18 19 19 19 19 20 20 20 21 22 22 23 23 24 25 25 26 27 29 30 30 30 30 31 31 31 31 30 30 30 30 30 30 30 29 29 29 29 28 29 29 30 30 30 29 29 29 30 30 29 29 29 28 28 28 28 29
13 13 13 13 13 14 15 16 17 18 18 19 19 19 20 20 20 20 21 21 22 22 23 24 24 25 25 25 26 27 29 30 31 32 32 32 32 32 32 31 30 30 30 30 29 28 27 27 27 28 28 28 29 29 29 29 29 29 29 29 30 30 29 29 29 28 28 29 29
13 13 13 14 15 15 16 17 18 19 19 19 20 20 20 20 21 21 21 22 23 23 24 24 25 25 26 26 27 28 29 30 31 32 33 33 33 33 32 31 31 30 30 30 29 27 26 26 26 27 28 28 29 29 29 29 29 29 29 29 29 29 29 29 29 29 29 29 30
13 14 15 15 16 16 17 18 19 19 19 20 20 20 20 21 21 21 22 23 23 24 24 25 25 26 26 27 28 30 30 31 31 32 33 33 34 34 33 32 31 30 31 30 29 28 27 27 27 27 28 29 29 30 29 29 29 28 29 29 29 29 29 30 30 30 30 30 30
14 15 16 16 17 17 18 18 19 19 20 20 20 21 21 21 21 22 23 23 24 24 25 25 26 26 27 28 29 30 31 32 32 32 33 33 33 34 33 32 31 31 31 31 30 28 27 27 27 28 28 29 30 30 29 29 29 29 29 29 28 28 29 29 30 31 31 32 32
15 16 16 17 17 18 18 19 19 20 20 20 21 21 21 21 22 22 23 24 24 25 26 26 26 26 27 28 30 31 31 32 33 33 33 33 33 33 33 32 32 32 31 31 30 28 27 28 28 29 29 30 30 30 29 29 28 28 28 28 28 29 29 29 30 31 32 32 32
16 16 17 17 18 18 18 19 20 20 20 20 21 21 21 22 22 23 24 24 25 26 26 26 26 27 28 29 30 31 32 32 32 32 33 33 33 33 32 32 33 33 33 31 29 28 28 28 29 30 30 30 29 29 28 28 28 28 28 28 29 29 30 31 31 32 32 32 32
16 17 17 18 18 18 19 19 20 20 20 21 21 21 22 22 23 23 24 25 25 25 25 26 27 28 29 30 31 31 32 32 33 33 33 33 32 32 32 33 33 34 33 31 29 28 28 29 30 30 31 30 30 29 28 28 28 28 29 29 30 30 31 31 32 32 31 31 32
16 17 17 18 18 19 19 19 20 20 21 21 21 21 22 22 23 23 24 24 25 25 25 26 27 29 30 30 31 32 32 33 33 32 32 32 32 32 33 34 34 33 32 30 29 28 29 30 31 31 31 31 30 29 29 29 29 29 29 30 31 31 32 32 32 32 32 32 32
16 17 17 18 18 19 19 20 20 21 21 21 21 22 22 23 23 23 24 24 25 25 26 27 28 29 30 31 32 32 32 32 32 31 31 32 32 33 33 33 33 32 31 30 29 29 30 31 31 31 31 31 30 30 30 30 30 30 30 30 31 32 32 32 32 32 32 33 32
17 17 18 18 19 19 20 20 21 21 21 22 22 22 22 23 24 24 24 25 25 26 27 27 28 29 29 30 31 32 31 30 30 30 31 32 32 33 33 32 31 31 31 30 30 30 31 31 31 31 32 31 30 30 30 30 30 30 30 30 31 31 32 32 32 33 33 33 32
17 18 18 19 19 20 21 21 21 22 22 23 23 23 23 23 24 25 26 26 25 26 26 27 28 28 28 29 29 30 30 30 30 30 30 31 32 32 32 32 31 32 32 32 31 31 31 31 32 32 32 31 31 30 30 31 30 30 30 30 31 32 32 32 33 33 33 32 31
17 18 19 19 20 21 21 22 22 23 23 23 24 24 24 24 24 25 26 26 26 26 27 28 28 29 29 29 29 29 29 30 30 30 30 30 31 32 32 32 33 33 33 32 31 31 31 31 32 32 32 31 30 30 30 30 30 30 30 30 31 31 32 32 32 32 31 31 30
17 18 19 20 20 21 22 22 23 23 23 24 24 24 24 25 25 25 25 26 27 27 28 28 29 30 30 30 30 29 28 29 30 31 30 30 30 31 31 32 34 34 34 34 32 32 31 32 32 32 31 31 30 30 30 30 29 30 30 30 30 31 31 32 31 30 29 29 29
17 18 19 20 20 21 22 22 23 23 23 24 24 24 25 25 25 25 25 25 27 28 28 29 29 29 30 30 30 29 29 29 30 30 31 30 30 30 31 32 33 34 35 34 33 32 32 32 31 31 31 31 30 30 30 29 29 29 29 29 29 30 30 30 29 29 28 28 29
17 17 18 19 20 21 21 22 22 23 23 23 24 24 24 25 25 25 25 25 26 27 28 29 29 29 29 30 30 30 30 30 30 30 31 31 30 30 30 31 32 33 34 35 34 33 32 31 31 31 31 30 30 30 29 28 28 28 28 28 28 28 29 28 28 28 28 29 30
17 17 18 19 20 21 21 22 22 22 23 23 24 24 24 24 25 25 25 25 25 26 28 29 29 29 29 29 29 30 30 31 31 31 31 31 30 30 29 30 31 33 35 35 34 33 32 31 31 30 30 30 30 29 28 27 27 27 27 27 27 27 28 28 27 28 28 30 30
17 17 18 18 19 20 21 22 22 22 22 23 24 24 24 24 24 25 25 25 26 26 27 28 28 28 29 28 29 30 31 32 32 32 31 31 31 30 29 30 31 33 35 35 34 32 31 30 30 30 29 29 29 29 28 27 27 26 26 26 26 26 27 27 28 28 28 29 28
17 18 18 18 19 20 21 22 22 22 22 23 23 24 24 24 24 25 26 27 27 27 27 27 28 29 29 29 29 30 31 32 33 33 33 32 31 31 30 31 32 33 34 34 33 31 30 29 29 29 29 29 29 29 28 27 25 25 24 25 25 26 26 27 27 27 27 26 27
Wind_Direction
53 53 52 51 51 51 51 51 50 49 48 46 45 43 41 39 37 36 34 31 27 24 22 20 16 14 14 14 15 14 12 11 11 11 11 12 11 10 9 7 7 6 5 5 3 2 0 359 357 355 352 350 349 347 346 346 345 343 342 342 341 340 338 336 335 334 333 331 329
55 54 53 52 51 51 52 52 52 51 50 49 47 44 41 39 36 34 33 31 28 25 22 19 15 14 14 14 14 13 12 12 11 11 11 12 11 10 9 8 7 7 6 5 4 3 1 360 358 355 352 350 349 347 346 346 345 344 342 342 341 340 339 337 335 334 333 331 330
55 54 53 53 53 52 53 53 52 51 49 47 45 43 40 37 35 33 31 29 27 25 22 18 15 14 14 14 13 12 12 12 11 12 12 12 11 10 9 8 7 7 6 5 4 3 2 -0 358 355 352 350 348 347 346 346 346 344 342 342 341 341 339 337 335 335 333 331 330
55 55 55 55 54 54 53 52 50 49 46 43 40 38 36 34 32 30 29 27 25 24 22 18 15 14 13 14 13 12 11 11 12 12 12 12 11 10 9 8 7 6 5 4 3 2 1 -0 358 355 352 350 348 347 346 345 345 344 343 342 341 340 338 336 335 334 332 330 329
55 55 56 55 55 54 52 49 47 45 43 39 36 34 32 30 29 27 25 24 23 23 21 17 15 14 14 14 13 13 12 12 12 13 12 11 10 9 8 7 7 6 4 3 2 1 0 359 357 355 352 350 348 347 346 345 344 342 342 341 341 340 338 335 333 332 331 328 328
55 55 55 54 53 52 50 47 45 42 39 36 34 33 31 28 26 25 24 23 22 21 19 16 15 15 15 14 14 13 13 13 13 13 12 11 9 8 7 7 6 5 3 2 1 -0 359 358 356 354 352 350 347 346 346 346 343 342 340 340 340 338 336 333 332 331 329 327 326
54 54 54 53 51 49 47 44 41 38 36 33 33 32 30 27 25 24 23 22 21 20 19 17 17 17 16 15 14 13 12 12 13 12 12 10 8 7 7 6 5 4 3 2 0 359 359 358 356 353 351 350 347 345 345 345 343 341 339 337 337 336 335 332 331 330 328 326 324
54 54 54 53 50 47 44 41 37 35 33 33 32 31 29 27 25 23 22 21 21 21 19 17 17 18 17 15 14 12 12 11 11 11 11 9 8 7 6 5 4 3 2 1 360 359 358 357 355 353 350 348 346 344 344 344 342 340 338 335 335 334 334 332 331 330 328 325 324
53 53 52 51 48 45 41 38 35 34 33 33 32 30 29 27 25 23 21 20 20 19 18 17 17 16 16 15 13 12 11 11 10 9 9 8 7 6 5 4 3 2 1 360 359 358 357 356 355 352 350 348 345 343 343 343 341 339 337 335 333 333 333 332 332 330 328 326 324
51 50 48 46 43 40 37 35 33 32 32 32 30 29 28 26 24 23 21 19 18 18 18 17 16 15 15 14 12 11 11 10 9 8 7 6 6 5 4 3 2 1 359 359 358 357 356 355 353 351 349 347 345 343 342 342 340 338 336 335 333 332 332 333 333 332 330 328 326
49 47 44 41 38 35 32 31 30 30 30 30 28 26 25 24 23 22 19 17 17 17 17 16 15 15 14 12 11 10 10 9 8 7 5 5 4 4 3 1 0 359 358 357 356 356 355 354 351 349 347 346 345 343 341 341 339 337 335 334 333 332 332 332 333 333 331 329 327
47 44 41 38 33 29 27 27 27 27 27 26 25 23 22 22 21 19 17 16 16 16 15 14 14 14 13 11 10 9 9 8 7 5 4 3 2 1 0 359 358 357 356 355 355 354 353 352 350 348 346 345 344 342 340 339 337 335 334 333 334 333 332 332 333 333 332 330 329
44 41 37 33 28 24 23 22 22 23 23 23 22 21 20 20 20 18 17 16 14 13 12 12 12 12 12 10 9 8 8 7 5 3 2 1 -0 359 358 357 357 355 354 353 353 353 352 350 349 346 344 342 341 340 338 337 335 334 333 332 333 332 331 331 332 332 331 331 330
41 38 34 29 25 21 19 19 19 19 20 20 20 19 19 19 18 17 16 15 13 12 11 10 10 10 10 9 8 7 6 5 3 1 0 359 358 357 357 355 355 354 352 351 351 351 350 349 347 345 342 340 338 338 337 336 334 333 332 332 332 331 331 331 331 331 331 331 330
37 34 30 26 22 18 16 16 15 16 17 18 18 18 18 18 17 17 15 13 12 10 10 9 9 9 7 7 6 6 5 4 2 -0 359 358 357 356 355 354 353 352 351 350 350 350 349 348 346 344 342 339 337 337 336 335 334 333 332 332 331 330 330 330 330 330 330 330 329
33 30 26 23 19 16 14 14 13 13 15 16 17 17 17 17 16 16 14 12 10 9 8 8 8 7 6 5 5 4 3 2 0 359 358 356 356 355 354 353 352 351 350 349 348 348 347 346 345 343 341 339 337 336 336 335 333 332 332 331 331 330 330 329 329 329 328 328 328
29 26 23 19 16 14 13 12 12 12 13 15 16 16 16 15 15 15 14 11 9 7 7 7 7 6 4 4 4 3 2 360 359 358 357 355 354 353 352 351 350 350 349 348 347 346 346 345 344 343 341 339 337 336 335 334 332 332 331 331 330 330 329 329 328 327 327 327 326
26 23 20 17 14 12 11 10 11 12 13 14 15 15 15 14 13 12 12 10 8 6 5 5 5 5 4 3 2 2 0 358 357 356 355 354 353 351 351 350 349 349 348 347 347 345 345 344 344 343 341 339 337 336 334 333 332 331 331 330 329 329 329 328 327 327 327 326 325
24 21 18 15 13 11 10 10 11 12 13 13 13 13 13 12 11 10 9 8 8 6 5 4 3 3 2 1 1 360 359 357 355 354 353 352 351 350 350 349 348 348 348 347 346 345 344 344 343 342 341 339 337 335 334 332 331 331 330 329 329 328 328 327 326 326 326 325 325
22 19 17 14 12 11 12 12 12 13 12 12 12 11 11 10 9 9 8 6 6 5 4 3 2 2 1 360 359 358 357 355 354 353 352 351 350 350 349 348 347 347 347 346 345 344 344 344 343 341 339 337 335 334 333 331 330 329 329 328 328 327 326 326 325 325 324 324 325
21 19 16 14 13 13 13 13 13 12 12 11 11 10 9 8 8 8 7 5 4 4 3 2 2 1 360 358 357 356 355 353 353 352 351 350 349 349 348 347 347 346 346 345 345 345 344 343 342 339 337 335 334 332 331 330 329 328 327 327 326 325 325 325 324 324 324 324 324
20 17 16 15 14 14 13 13 12 11 11 10 9 8 7 6 6 6 5 4 3 2 2 1 0 359 359 357 356 354 352 351 351 351 350 349 348 348 347 346 346 345 345 344 344 344 343 341 339 337 335 333 331 330 329 328 327 326 325 325 324 324 324 324 324 323 323 323 323
17 16 15 15 14 13 13 11 10 10 9 8 7 7 6 5 4 3 3 2 1 0 -0 359 359 358 357 356 354 353 351 351 350 350 349 348 348 347 346 346 346 345 344 343 343 342 340 337 335 333 332 331 330 328 327 326 325 324 323 323 323 323 322 322 322 322 322 322 322
16 15 14 13 13 12 11 10 9 9 8 8 7 5 5 3 2 1 0 359 359 358 358 357 357 356 355 354 353 352 351 350 349 349 348 348 347 346 345 345 345 343 342 341 341 339 336 333 331 330 330 329 328 326 325 324 324 323 322 321 321 321 320 320 320 320 320 320 320
13 12 12 12 11 10 9 9 8 8 7 6 5 4 3 2 0 359 358 358 357 356 356 355 355 354 353 352 351 350 350 350 349 348 347 346 346 345 344 344 343 341 340 339 338 335 332 330 329 328 327 327 326 325 323 322 322 321 320 320 319 319 318 318 318 319 319 318 319
9 10 11 10 9 8 8 8 7 6 5 3 3 2 1 0 359 358 357 357 356 355 354 354 353 353 351 350 349 349 349 349 348 347 346 345 344 344 343 342 340 339 338 337 334 332 329 327 327 326 326 325 324 323 322 321 320 319 319 318 318 317 317 317 316 317 317 317 317
7 8 8 7 6 7 7 6 5 4 3 2 1 1 360 358 357 357 356 356 355 353 353 353 352 351 350 349 348 348 348 347 346 346 345 344 343 342 341 339 338 336 335 334 332 329 327 325 326 326 325 325 324 322 321 319 318 318 318 317 316 316 315 314 314 315 315 316 315
6 6 5 4 4 4 3 3 2 2 1 0 360 359 358 357 356 356 356 355 354 353 353 352 351 349 348 347 347 347 346 346 345 344 343 342 341 340 338 336 335 334 333 332 330 327 325 324 325 325 324 324 323 321 319 318 317 317 316 316 315 314 313 313 313 313 314 314 313
5 4 2 1 1 0 0 0 0 360 359 358 358 357 356 356 356 356 355 354 354 354 353 350 348 347 347 346 346 345 344 344 343 342 341 340 339 337 336 334 333 332 332 331 328 325 324 324 324 324 323 323 322 320 318 317 316 315 315 314 314 313 312 312 312 312 312 312 312
4 2 -0 359 358 357 357 358 358 358 357 356 356 355 355 355 355 354 354 353 353 352 350 348 347 346 346 345 344 343 343 342 341 341 340 338 336 334 333 332 331 331 331 330 327 324 323 323 323 323 323 322 321 319 317 316 315 314 313 312 312 311 310 310 310 310 310 310 310
2 360 357 356 355 355 355 355 356 355 355 354 354 354 354 353 353 353 352 352 351 349 347 346 346 345 344 344 343 342 341 340 340 339 337 335 333 331 330 330 330 330 329 328 326 324 323 323 323 323 322 322 320 319 317 315 314 313 312 311 310 310 309 309 309 309 309 309 309
359 356 354 353 352 352 353 353 353 353 353 353 353 352 351 351 351 351 351 350 349 347 346 346 345 344 343 342 341 340 340 338 337 336 334 332 330 329 328 328 328 328 328 327 324 323 323 323 323 322 321 321 320 318 316 315 313 312 311 310 309 308 309 309 309 309 308 308 308
356 353 351 350 350 350 350 351 351 351 350 350 350 350 349 348 348 349 349 348 347 346 345 344 342 341 340 339 338 337 336 335 333 332 331 330 328 327 326 326 326 327 327 325 324 322 322 322 322 321 321 320 319 317 316 315 313 312 310 309 309 309 309 309 308 308 308 308 308
352 350 349 348 348 348 348 348 348 348 347 347 347 347 347 347 346 346 347 347 345 344 343 341 340 338 337 336 335 334 332 331 330 329 328 328 327 326 324 323 324 325 326 325 323 322 321 321 321 321 320 320 319 317 316 314 313 311 310 309 309 310 310 309 309 309 309 308 308
350 348 347 346 346 346 346 346 346 346 345 345 345 345 345 345 344 344 344 344 343 341 340 339 338 336 335 334 333 332 330 328 327 326 326 326 325 324 322 321 323 325 325 324 323 322 321 320 320 320 320 320 319 317 316 314 313 312 311 310 310 310 310 310 310 309 309 308 308
349 347 345 344 344 344 344 344 344 344 344 344 343 343 342 342 342 343 343 342 340 339 338 337 336 335 334 333 331 330 328 326 325 324 324 324 323 322 320 320 322 324 325 325 323 322 320 319 319 320 320 320 319 318 316 315 313 313 312 311 311 311 311 310 309 308 308 308 308
348 346 344 343 343 342 342 342 342 342 342 342 341 340 339 339 339 340 341 340 338 336 335 334 333 332 331 330 328 327 326 325 323 322 322 322 322 320 319 319 320 322 324 324 323 322 320 318 319 320 321 320 319 318 317 316 314 313 312 312 311 311 311 310 309 308 309 309 308
347 346 344 342 341 340 340 340 340 340 339 339 338 338 337 337 337 338 338 337 335 333 331 331 330 329 328 327 325 324 324 324 323 321 320 320 320 319 318 317 318 320 322 323 322 321 319 317 318 320 321 321 320 319 318 316 315 313 312 312 310 310 310 309 309 309 310 310 309
346 345 343 341 339 339 338 338 338 338 337 336 335 335 335 335 335 335 335 334 332 330 328 327 326 325 326 325 323 322 322 322 322 321 320 319 319 319 317 316 316 318 321 323 322 320 318 317 318 320 321 321 321 320 319 317 315 313 312 311 310 309 309 310 310 310 310 310 310
344 344 342 340 339 337 337 336 336 335 335 334 333 333 333 333 332 332 332 331 330 328 326 324 323 324 324 324 322 321 320 321 322 322 320 319 319 318 317 316 316 317 320 322 322 319 317 317 319 321 322 323 323 322 320 318 315 313 312 311 310 309 309 310 311 310 310 311 313
343 342 342 340 339 337 336 334 334 334 334 333 332 331 331 330 330 330 330 329 328 327 325 324 323 322 323 322 321 320 319 319 320 321 321 319 319 318 317 316 316 317 319 322 321 318 316 317 320 322 323 323 323 323 322 319 315 313 312 311 311 310 309 309 310 311 313 315 317